ALESUND / VIGRA current weather conditions

sailwx.info

Wind from 070 at 9 knots

Air temperature 19.0° C
Dewpoint 12.0° C

Last reported at 2014-Aug-30 14:50 UTC.
Time now 2014-Aug-30 16:35 UTC

Location: N 62°34' E 006°07'.
View on Google Maps.

See reports from other nearby stations

  
Tides and Currents Weather Stations Pressure Air Temp Water Temp Dewpoint Dewpoint Depression Visibility Wind Speed Wind Dir Waves Ship Positions
date/time (UTC)wind fromknots sea level pressurealtimeterstation pressurevisibilityair tempwater tempwave heightnotes
2014-Aug-30 15:50 060 9 19.0
2014-Aug-30 15:20 060 10 19.0
2014-Aug-30 14:50 070 9 19.0
2014-Aug-30 14:20 050 6 20.0
2014-Aug-30 13:50 050 7 19.0
2014-Aug-30 13:20 050 7 19.0
2014-Aug-30 12:50 050 5 20.0
2014-Aug-30 12:20 050 4 19.0
2014-Aug-30 11:50 040 3 19.0
2014-Aug-30 11:20 060 5 19.0
2014-Aug-30 10:50 050 4 19.0
2014-Aug-30 10:20 19.0
2014-Aug-30 09:50 19.0
2014-Aug-30 09:20 19.0
2014-Aug-30 08:50 090 3 19.0
2014-Aug-30 08:20 100 3 19.0
2014-Aug-30 07:50 18.0
2014-Aug-30 07:20 17.0
2014-Aug-30 06:50 110 3 16.0
2014-Aug-30 06:20 150 3 15.0
2014-Aug-30 05:50 160 4 14.0
2014-Aug-30 05:20 150 5 gusting 15 13.0
2014-Aug-30 04:50 160 6 12.0
2014-Aug-30 04:20 170 2 12.0
2014-Aug-30 03:50 140 3 13.0
2014-Aug-30 03:20 140 4 5.412.0
2014-Aug-30 02:50 220 3 5.413.0
2014-Aug-30 02:20 250 5 5.413.0
2014-Aug-30 01:50 240 6 5.413.0
2014-Aug-30 01:20 240 7 5.413.0
2014-Aug-30 00:50 220 4 5.413.0
2014-Aug-30 00:20 220 5 5.414.0
2014-Aug-29 23:50 200 6 5.415.0
2014-Aug-29 23:20 210 5 5.415.0
2014-Aug-29 22:50 210 5 5.415.0
2014-Aug-29 22:20 190 4 5.415.0
2014-Aug-29 21:50 200 6 15.0
2014-Aug-29 20:50 070 7 15.0
2014-Aug-29 20:20 080 6 15.0
2014-Aug-29 19:50 060 4 14.0
2014-Aug-29 19:20 030 6 16.0
2014-Aug-29 18:50 040 8 17.0
2014-Aug-29 18:20 020 10 18.0
2014-Aug-29 17:50 350 5 17.0
2014-Aug-29 17:20 040 8 18.0
2014-Aug-29 16:50 040 9 18.0
2014-Aug-29 16:20 050 9 19.0
2014-Aug-29 15:50 050 10 18.0
2014-Aug-29 15:20 050 10 19.0
2014-Aug-29 14:50 050 9 19.0
2014-Aug-29 14:20 040 9 19.0
2014-Aug-29 13:50 040 7 19.0
2014-Aug-29 13:20 050 9 19.0
2014-Aug-29 12:50 040 7 19.0
2014-Aug-29 12:20 050 7 19.0
2014-Aug-29 11:50 050 6 19.0
2014-Aug-29 11:20 050 7 18.0
2014-Aug-29 10:50 050 8 17.0
2014-Aug-29 10:20 050 8 17.0
2014-Aug-29 09:50 060 10 17.0
2014-Aug-29 09:20 050 10 16.0
2014-Aug-29 08:50 070 5 16.0
2014-Aug-29 08:20 070 5 15.0
2014-Aug-29 07:50 070 5 15.0
2014-Aug-29 07:20 090 4 15.0
2014-Aug-29 06:50 080 3 14.0
2014-Aug-29 06:20 150 4 13.0
2014-Aug-29 05:50 150 3 12.0
2014-Aug-29 05:20 140 4 gusting 14 10.0
2014-Aug-29 04:50 180 3 8.0
2014-Aug-29 04:20 170 4 9.0
2014-Aug-29 03:50 140 4 9.0
2014-Aug-29 03:20 150 4 5.4 9.0
2014-Aug-29 02:50 090 4 5.4 9.0
2014-Aug-29 02:20 120 3 5.410.0
2014-Aug-29 01:50 110 5 5.411.0
2014-Aug-29 01:20 150 5 5.410.0
2014-Aug-29 00:50 130 6 5.411.0
2014-Aug-29 00:20 130 6 5.411.0
2014-Aug-28 23:50 150 4 5.4 9.0
2014-Aug-28 23:20 140 3 5.4 9.0
2014-Aug-28 22:50 230 1 5.4 9.0
2014-Aug-28 22:20 250 3 5.4 9.0
2014-Aug-28 21:50 260 4 5.4 9.0
2014-Aug-28 21:20 260 4 5.4 9.0
2014-Aug-28 20:50 270 4 5.410.0
2014-Aug-28 20:20 270 4 11.0
2014-Aug-28 19:50 270 5 11.0
2014-Aug-28 19:20 260 4 13.0
2014-Aug-28 18:50 270 4 14.0
2014-Aug-28 18:20 270 5 15.0
2014-Aug-28 17:50 270 6 15.0
2014-Aug-28 17:20 260 7 16.0
2014-Aug-28 16:50 250 7 16.0
2014-Aug-28 16:20 230 7 17.0